Content
SEND FEEDBACK

Daily
Averages
Monthly
Summary
United States of America

BERKELEY, MISSOURI


Home > North America > United States > Missouri
Elevation: 564 feet     Latitude: 38 45N     Longitude: 090 22W

WEATHER
 
SELECT A DAY
Number of Records: 203,607;   Date Range: 1/1/95 - 9/3/14
 
SHARE

PRINT THIS DATA

[ ← Previous Day ]
WEATHER ALMANAC - APRIL 22, 2013
[ Next Day → ]
[ °C ]   °F
Weather ElementAverageHighLow
Temperature60.4 °F72 °F (4:51 pm)42.1 °F (4:51 am)
Dewpoint38.7 °F44.1 °F (11:51 pm)35.1 °F (3:51 am)
Humidity47 %76 % (4:51 am)31 % (1:51 pm)
Barometer30.13 in30.26 in (1:51 am)29.99 in (5:51 pm)
Wind Speed9.9 mph21.9 mph (5:51 pm)
Wind Gust27.6 mph (5:51 pm)
Weather ElementAverage
Visibility10 mi
Wind DirectionSE (132.6 °)

Weather ElementTotal
Precipitation---
Heating Degree Days8 (Base 65)
Growing Degree Days7.1 (Base 50)
Averaged from 23 records on April 22, 2013
WEATHER CONDITIONS BREAKOUT
WIND DIRECTION BREAKOUT
Weather ElementAverageHighLow
Temperature60.4 °F72 °F (4:51 pm)42.1 °F (4:51 am)
Dewpoint38.7 °F44.1 °F (11:51 pm)35.1 °F (3:51 am)
Humidity47 %76 % (4:51 am)31 % (1:51 pm)
Barometer30.13 in30.26 in (1:51 am)29.99 in (5:51 pm)
Wind Speed9.9 mph21.9 mph (5:51 pm)
Wind Gust27.6 mph (5:51 pm)
Weather ElementAverage
Visibility10 mi
Wind DirectionSE (132.6 °)

Weather ElementTotal
Precipitation---
Heating Degree Days8 (Base 65)
Growing Degree Days7.1 (Base 50)
Averaged from 23 records on April 22, 2013
WEATHER CONDITIONS BREAKOUT
WIND DIRECTION BREAKOUT
WEATHER BY HOUR - APRIL 22, 2013
[ °C ]   °F
Local TimeTemperatureDewpointHumidityBarometerVisibilityWind DirectionWind SpeedGust SpeedPrecipitationEventsConditions
1:51 AM48.0 °F36.0 °F63 %30.26 in10.0 miESE (120°)8.1 mphPartly Cloudy
2:51 AM46.9 °F36.0 °F66 %30.25 in10.0 miESE (120°)8.1 mphPartly Cloudy
3:51 AM46.0 °F35.1 °F66 %30.24 in10.0 miEast (100°)5.8 mphPartly Cloudy
4:51 AM42.1 °F35.1 °F76 %30.24 in10.0 miEast (90°)5.8 mphClear
5:51 AM43.0 °F36.0 °F76 %30.23 in10.0 miESE (110°)8.1 mphPartly Cloudy
6:51 AM44.1 °F36.0 °F73 %30.23 in10.0 miESE (120°)6.9 mphScattered Clouds
7:51 AM51.1 °F37.0 °F59 %30.23 in10.0 miEast (100°)5.8 mphMostly Cloudy
8:51 AM57.0 °F35.1 °F44 %30.22 in10.0 miSSE (150°)6.9 mphMostly Cloudy
9:51 AM61.0 °F35.1 °F38 %30.20 in10.0 miSouth (170°)9.2 mphMostly Cloudy
10:51 AM63.0 °F37.9 °F40 %30.19 in10.0 miSE (140°)10.4 mphMostly Cloudy
11:51 AM66.9 °F39.0 °F36 %30.18 in10.0 miSE (140°)10.4 mphMostly Cloudy
12:51 PM69.1 °F37.9 °F32 %30.15 in10.0 miESE (110°)6.9 mphMostly Cloudy
1:51 PM71.1 °F39.0 °F31 %30.11 in10.0 miSSE (160°)10.4 mph16.1 mphMostly Cloudy
2:51 PM70.0 °F39.0 °F32 %30.09 in10.0 miSE (130°)8.1 mph19.6 mphMostly Cloudy
3:51 PM70.0 °F39.9 °F33 %30.04 in10.0 miSE (130°)16.1 mph21.9 mphMostly Cloudy
4:51 PM72.0 °F39.9 °F31 %30.01 in10.0 miSSE (150°)17.3 mph23.0 mphMostly Cloudy
5:51 PM70.0 °F39.9 °F33 %29.99 in10.0 miSE (140°)21.9 mph27.6 mphMostly Cloudy
6:51 PM69.1 °F39.9 °F35 %29.99 in10.0 miSSE (150°)15.0 mphMostly Cloudy
7:51 PM66.9 °F42.1 °F40 %29.99 in10.0 miSE (140°)13.8 mphOvercast
8:51 PM66.9 °F43.0 °F42 %30.01 in10.0 miSSE (150°)10.4 mphOvercast
9:51 PM66.0 °F43.0 °F43 %30.02 in10.0 miSE (140°)8.1 mphOvercast
10:51 PM64.9 °F43.0 °F45 %30.01 in10.0 miSSE (150°)6.9 mphMostly Cloudy
11:51 PM64.0 °F44.1 °F48 %30.01 in10.0 miSE (140°)6.9 mphMostly Cloudy
Hourly data recorded from KSTL, located miles away from Berkeley, Missouri







STORIES FROM OUR PARTNERS